Hourly Weather Roundup
Issued by NWS Central Illinois

Home | Current Version | Previous Version | Graphics & Text | Print | Product List | Glossary On
Versions: 1 2 3 4 5 6 7 8 9 10 11 12 13 14 15 16 17 18 19 20 21 22 23 24 25 26 27 28 29 30 31 32 33 34 35 36 37 38 39 40 41 42 43 44 45 46 47 48 49 50
000
NZUS43 KILX 230210
HWRILX

AREA WEATHER ROUNDUP
NATIONAL WEATHER SERVICE, LINCOLN IL
900 PM CDT MON SEP 22 2014


CITY           SKY/WX    TMP DP  RH WIND       PRES   REMARKS
BLOOMINGTON    CLEAR     56  46  69 CALM      30.28R
CHAMPAIGN      CLEAR     53  46  77 NE3       30.27R
DECATUR        CLEAR     56  45  66 CALM      30.26R
FLORA          CLEAR     52  48  85 CALM      30.25S
GALESBURG      CLEAR    N/A N/A N/A CALM      30.26S
JACKSONVILLE   CLEAR     56  50  79 CALM      30.27S
LACON          CLEAR     50  46  86 CALM      30.26R
LAWRENCEVILLE  CLEAR     53  49  86 CALM      30.26R
LITCHFIELD     CLEAR     54  48  78 CALM      30.26R
$$


CITY           SKY/WX    TMP DP  RH WIND       PRES   REMARKS
LINCOLN        CLEAR     55  47  76 CALM      30.25R
MACOMB         CLEAR     52  47  84 CALM      30.29R
MATTOON        CLEAR     54  47  77 CALM      30.25S
MT CARMEL AP   CLEAR     54  50  87 CALM      30.25S
OLNEY-NOBLE AP CLEAR     50  48  93 CALM      30.25S
PARIS          CLEAR     48  47  97 CALM      30.27S
PEORIA         CLEAR     55  49  80 CALM      30.27R
PONTIAC        CLEAR     52  48  87 CALM      30.26S
RANTOUL        CLEAR     56  45  66 CALM      30.27R
ROBINSON       CLEAR     50  48  93 CALM      30.27R
SPRINGFIELD    CLEAR     53  49  86 CALM      30.27R
TAYLORVILLE    CLEAR     52  48  87 CALM      30.26R
$$

...REGIONAL REPORTS...


CITY           SKY/WX    TMP DP  RH WIND       PRES   REMARKS
CHICAGO O`HARE CLEAR     58  46  64 S8        30.25R
KANKAKEE       CLEAR     52  48  86 CALM      30.27S
MOLINE         CLEAR     51  46  83 E3        30.25R
MOUNT VERNON   CLEAR     50  46  87 CALM      30.26S
PITTSFIELD     CLEAR     55  50  81 CALM      30.28R
QUINCY         PTCLDY    57  47  69 CALM      30.26R
ROCKFORD       CLEAR     54  48  80 S5        30.27R
$$


CITY           SKY/WX    TMP DP  RH WIND       PRES   REMARKS
BURLINGTON     CLEAR     52  50  93 CALM      30.26R
CEDAR RAPIDS   CLEAR     54  51  90 S3        30.23S
DES MOINES     PTCLDY    65  51  60 SE7       30.22S
KIRKSVILLE     CLEAR     53  32  44 CALM      30.27R
OTTUMWA        CLEAR     53  50  89 S5        30.25R
ST LOUIS       PTCLDY    63  49  60 CALM      30.26R
$$


CITY           SKY/WX    TMP DP  RH WIND       PRES   REMARKS
TERRE HAUTE    CLEAR     49  46  90 CALM      30.26R
EVANSVILLE     CLEAR     58  48  69 N3        30.25R
INDIANAPOLIS   CLEAR     56  44  64 N6        30.25R
LAFAYETTE      CLEAR     52  47  83 CALM      30.27R
MADISON        CLEAR     54  50  86 CALM      30.22R
MILWAUKEE      CLEAR     60  47  61 SW5       30.22R
$$





USA.gov is the U.S. government's official web portal to all federal, state and local government web resources and services.